Theta_e
324 324 323 323 322 322 322 322 320 315 318 320 320 320 319 317 314 309 306 305 304 304 304 304 304 305 306 308 307 307 304 305 308 310 310 310 316 319 320 321 322 319 318 319 317 321 324 323 323 325 322 323 328 327
324 324 323 323 323 322 322 320 316 315 311 318 319 320 320 318 314 309 306 305 304 304 304 305 306 307 306 305 306 307 304 305 307 309 309 310 314 314 315 316 317 324 319 323 319 319 321 322 322 322 324 327 327 327
324 323 324 324 324 319 313 310 308 309 312 316 319 320 320 319 316 309 306 305 304 304 307 309 310 309 309 309 308 306 306 308 306 309 308 307 310 312 317 316 318 318 321 324 322 320 320 321 321 320 321 322 323 325
322 323 323 321 316 311 309 308 307 308 313 314 318 318 319 318 317 312 305 304 305 306 306 309 309 309 310 309 309 310 311 309 309 309 310 308 313 315 315 316 318 319 320 320 319 319 321 322 320 320 319 321 323 324
321 318 315 311 309 309 309 308 307 307 313 314 317 318 318 319 318 312 306 307 311 309 307 310 309 312 312 312 312 312 311 310 307 309 309 309 311 312 313 314 317 317 318 320 320 319 320 318 319 319 321 322 322 327
311 309 308 308 308 309 309 308 307 307 312 312 314 317 317 318 318 309 306 310 311 309 308 307 308 313 313 313 314 314 314 311 308 309 312 313 313 314 318 317 315 315 317 319 319 319 320 319 318 321 322 322 325 325
308 308 308 308 308 309 309 308 307 307 312 312 312 315 315 317 314 306 306 307 308 309 309 308 310 312 314 315 316 317 318 313 313 311 314 316 317 315 317 318 317 318 318 317 317 317 317 318 320 321 321 323 323 324
307 307 307 307 308 309 309 308 308 308 309 309 312 314 315 315 309 309 311 312 307 309 310 312 312 311 313 315 317 318 320 321 320 321 320 319 319 318 322 319 319 319 318 317 318 319 319 319 320 322 324 321 321 331
306 306 306 306 307 309 309 307 308 307 308 311 313 315 314 311 313 313 314 314 311 310 311 312 313 312 314 314 315 318 321 323 321 321 320 320 323 323 321 320 320 321 321 321 321 322 323 323 322 326 329 325 329 329
305 305 305 306 307 309 308 306 308 310 311 312 314 311 311 312 314 313 310 310 309 310 311 310 311 312 312 314 316 320 322 322 323 322 319 321 321 319 320 322 324 325 323 324 322 322 323 326 327 328 330 329 333 330
304 305 305 306 307 309 306 307 310 311 312 312 310 310 309 307 307 309 311 312 312 312 311 310 311 311 313 311 312 319 323 322 325 325 325 325 326 328 326 328 326 330 331 329 328 327 328 328 329 331 333 332 331 331
304 304 305 305 308 307 306 309 310 311 312 309 307 306 305 307 307 307 311 315 314 315 313 311 313 312 314 314 318 323 324 324 327 325 329 331 327 325 326 328 329 331 333 332 329 330 330 331 331 333 334 330 330 331
304 304 305 306 307 306 307 309 310 310 311 309 306 309 309 309 309 312 315 315 315 316 317 317 315 318 317 319 322 324 328 325 324 330 331 327 324 324 326 328 329 330 332 334 333 334 334 333 333 334 333 333 334 333
303 304 305 306 306 308 310 310 310 309 305 305 310 308 310 309 310 311 313 314 317 317 314 314 316 318 319 321 323 327 325 324 329 330 327 324 324 323 326 328 329 329 331 334 333 333 333 333 334 333 333 335 333 332
303 305 306 306 307 310 310 310 310 306 305 305 309 308 310 312 313 313 314 314 311 311 311 316 316 317 321 323 324 326 327 330 328 328 326 324 324 326 325 328 331 332 332 332 333 332 329 328 329 331 334 335 334 333
305 306 306 308 309 309 310 309 309 306 304 304 307 309 312 310 311 310 310 310 311 311 317 318 318 321 325 325 327 327 326 329 326 323 323 323 326 326 324 325 327 331 331 331 332 331 331 331 333 333 332 332 333 333
306 307 306 307 308 309 308 308 306 305 303 308 310 309 308 308 309 310 311 312 311 314 313 316 319 322 320 324 325 325 325 325 323 323 324 326 327 326 326 324 325 325 327 331 331 331 331 331 332 331 331 331 330 330
306 307 307 307 307 306 306 305 304 305 308 307 307 309 309 311 311 311 311 311 311 313 316 317 318 321 323 324 324 322 323 322 324 325 327 327 328 327 326 325 324 325 324 324 326 328 330 331 330 330 330 330 330 330
307 308 308 308 306 305 305 304 304 307 309 310 310 310 311 311 311 311 310 312 312 311 313 319 317 320 322 321 321 322 324 323 325 326 328 327 328 327 326 326 326 325 324 324 324 323 323 324 327 328 327 326 328 329
307 307 307 306 305 305 307 308 306 306 307 309 310 310 310 311 312 312 312 311 312 313 317 317 316 319 320 321 323 325 326 326 327 327 327 328 328 327 325 326 326 326 325 325 325 324 324 324 324 324 326 328 328 328
307 306 305 305 304 304 305 307 309 310 311 311 311 310 311 311 312 312 313 313 314 317 316 318 318 318 319 322 323 325 326 327 327 327 328 328 327 327 327 326 325 325 325 323 321 321 321 322 323 324 325 327 328 327
306 305 305 303 305 304 305 307 307 307 306 308 308 309 310 309 310 312 312 315 316 316 316 316 316 317 318 323 323 322 323 327 327 328 328 327 326 326 326 326 325 325 324 322 320 320 321 323 325 327 328 327 326 325
305 304 305 305 305 305 306 307 307 308 307 308 308 308 309 310 312 312 314 315 317 316 317 317 317 317 319 322 322 322 326 325 327 328 327 326 326 327 326 325 325 324 322 320 319 318 320 323 324 324 324 326 326 325
304 305 306 306 305 306 307 308 308 308 308 308 306 309 310 312 316 314 312 313 315 315 316 319 320 319 319 319 323 324 323 326 327 326 326 327 326 326 326 325 324 323 321 318 316 318 320 321 321 321 321 321 323 323
305 305 305 306 307 308 308 309 308 308 310 309 310 310 310 313 314 315 316 317 318 319 319 320 320 321 320 322 323 324 324 326 324 326 327 326 326 325 326 326 324 323 320 316 313 314 315 317 317 318 319 319 320 320
304 306 306 307 308 308 309 311 310 309 308 310 309 311 313 313 316 317 317 321 321 322 322 322 322 323 323 324 324 325 325 326 325 326 326 326 325 325 324 324 324 323 321 316 314 311 309 311 311 311 311 312 313 311
305 307 306 306 306 306 306 308 309 309 311 310 312 313 313 317 318 317 320 321 321 322 322 323 324 324 324 324 325 325 326 326 327 327 327 327 326 325 325 325 324 322 321 314 310 307 310 311 311 311 311 312 313 315
305 306 308 307 307 307 306 307 308 310 311 311 313 315 318 318 317 319 318 319 321 322 323 323 323 323 324 325 325 325 325 326 326 326 325 325 325 325 325 324 322 321 318 312 312 311 309 309 309 310 310 312 313 314
305 306 306 306 307 308 308 308 309 310 311 311 310 312 317 317 316 316 319 320 320 322 323 323 323 324 324 325 325 325 325 326 326 326 325 325 325 324 324 321 319 320 317 314 313 313 314 314 314 314 315 315 316 316
304 305 306 307 307 307 309 310 311 311 310 310 310 311 311 312 313 314 317 319 321 321 322 322 323 324 325 325 325 325 325 324 325 325 325 324 323 321 322 320 319 318 317 315 316 316 316 316 316 317 317 317 318 318
306 306 306 307 307 309 310 310 310 310 310 310 311 311 312 312 314 317 319 319 321 320 321 321 322 323 324 325 325 325 325 324 327 326 325 325 323 322 321 320 318 316 316 316 316 316 317 317 317 318 319 320 320 319
306 306 307 306 308 310 309 310 310 310 310 311 311 312 312 312 315 318 319 320 321 321 321 322 322 323 323 325 326 326 326 326 325 326 326 325 325 321 320 320 319 317 316 316 317 317 318 319 320 321 321 320 320 320
306 306 307 308 308 308 310 310 310 310 311 311 312 312 312 312 313 316 319 320 319 320 322 321 322 323 324 325 325 326 326 326 326 326 326 325 323 320 317 320 321 319 317 318 319 319 320 320 321 321 321 321 320 321
Wind_Speed
24 25 27 29 30 30 29 30 30 28 22 22 23 24 24 23 24 22 17 13 16 8 28 14 10 12 8 8 4 4 8 1 2 1 3 4 3 3 4 4 3 5 5 4 3 4 9 3 4 2 6 5 11 23
28 29 30 32 32 32 32 32 29 27 25 21 21 21 22 22 22 24 20 20 19 16 23 33 31 29 29 25 14 6 4 3 4 0 2 3 2 2 2 4 5 4 5 3 7 5 5 7 3 16 10 7 13 22
33 34 36 34 34 34 33 31 29 25 23 18 20 20 20 22 21 22 24 23 18 13 23 12 6 6 12 14 9 10 9 12 9 10 3 4 5 3 4 5 6 5 5 4 4 1 6 12 24 19 13 20 26 24
36 36 35 35 34 34 31 29 27 23 19 17 19 21 20 21 21 22 23 23 14 8 6 9 16 31 20 23 27 28 27 19 18 12 8 4 3 9 5 7 8 8 2 3 8 7 17 23 13 20 33 30 29 33
35 35 34 33 32 31 28 26 24 21 16 16 17 19 18 21 23 22 23 12 5 4 5 19 30 2 3 7 13 20 28 32 20 6 6 4 7 9 10 3 11 18 16 11 14 16 18 18 29 31 31 34 35 28
33 32 31 30 29 27 25 22 20 19 15 15 17 18 18 22 24 20 5 1 0 5 7 5 14 8 10 14 21 25 29 30 21 10 8 8 18 12 4 7 19 31 34 34 25 37 35 35 39 35 33 34 23 26
30 28 28 27 25 24 22 20 17 15 14 16 14 17 19 22 20 13 8 9 9 5 4 8 8 9 20 16 15 18 17 19 21 8 8 8 13 16 3 13 14 24 30 35 37 38 28 34 28 29 26 24 28 25
27 26 25 25 24 22 20 17 15 14 13 14 14 16 19 19 21 15 5 4 14 7 5 3 6 10 6 8 8 7 5 8 8 6 5 4 4 9 6 11 20 28 34 37 37 37 37 36 33 29 30 30 29 18
25 24 24 23 22 20 18 15 13 13 11 9 12 15 16 7 1 2 6 5 8 7 4 5 3 5 8 8 7 5 4 2 3 2 2 7 1 4 12 15 19 19 17 17 19 17 18 24 30 25 23 17 17 9
24 23 22 21 20 18 15 11 9 10 5 9 9 4 3 2 1 3 3 1 5 6 7 6 6 5 6 5 5 5 4 2 2 2 4 2 4 24 34 34 33 32 32 30 28 25 25 24 20 16 14 18 24 20
22 22 21 19 18 16 11 5 5 6 6 4 3 4 4 4 3 2 2 4 5 4 7 8 11 7 9 3 3 4 3 2 2 1 2 2 3 14 39 36 36 33 19 22 22 21 14 13 12 10 15 19 17 22
20 19 18 17 15 13 7 6 10 8 6 5 4 6 3 3 2 2 3 4 4 4 5 6 8 10 8 6 5 5 2 2 4 6 3 4 5 36 38 34 30 39 25 1 13 14 14 17 15 8 19 23 26 17
17 16 14 14 12 7 5 7 10 8 9 6 3 2 2 3 2 5 5 3 3 5 7 7 7 5 4 5 6 2 3 4 12 2 3 3 23 39 41 37 24 26 31 16 15 17 16 13 18 13 17 12 15 19
14 13 11 11 6 4 6 8 6 6 5 4 3 2 5 4 5 5 4 3 5 10 24 24 9 4 3 2 3 3 2 2 4 4 4 6 30 38 35 31 25 22 18 21 18 16 23 23 22 20 11 13 20 19
10 10 10 7 5 5 8 7 6 6 2 3 4 5 7 12 10 10 12 12 18 23 21 11 5 3 2 3 2 3 5 3 3 3 3 22 34 31 30 30 27 32 33 30 25 27 25 20 22 19 19 22 20 26
7 8 4 2 5 6 6 6 6 6 3 4 7 4 11 4 12 9 7 15 16 22 15 5 2 2 3 2 3 2 5 2 3 3 22 27 21 21 23 23 27 26 28 30 27 24 20 20 24 22 22 22 22 21
6 7 4 3 3 5 6 7 6 5 5 5 8 13 18 17 19 22 15 13 18 12 2 3 3 2 3 2 3 2 2 3 17 25 19 13 13 14 17 21 23 25 29 28 26 24 25 26 26 27 30 28 27 26
8 5 4 6 7 9 10 8 5 4 7 11 9 10 13 17 20 22 22 17 11 4 3 3 4 2 3 1 3 3 13 22 15 15 10 7 8 10 12 14 18 21 24 28 30 27 26 27 27 25 23 22 23 22
8 6 6 6 11 7 6 6 5 4 11 13 16 20 21 25 27 26 23 18 16 14 5 3 2 2 2 2 10 23 23 18 19 13 5 5 7 7 9 11 12 15 18 20 21 22 22 21 20 18 18 17 19 18
7 6 5 9 13 4 3 4 5 6 5 4 11 14 13 15 20 15 11 12 11 5 5 3 5 6 5 10 10 17 20 15 9 5 4 6 7 8 9 9 9 10 12 12 13 12 10 12 13 13 13 15 17 19
9 7 7 9 11 6 4 4 5 5 7 7 11 14 8 13 16 14 8 7 7 6 5 10 17 17 14 6 12 14 14 10 5 0 3 3 3 6 8 7 7 8 10 11 12 10 13 16 13 10 12 17 20 23
8 7 6 8 5 4 6 7 6 6 6 9 12 10 8 5 6 7 7 7 5 8 14 19 19 17 12 1 2 12 12 10 4 3 3 5 7 7 8 7 7 10 10 12 12 13 14 15 14 15 18 21 23 23
5 9 5 6 5 5 5 5 4 4 3 4 4 3 4 4 3 6 5 5 6 11 10 13 14 12 3 11 7 9 9 7 5 3 6 8 6 6 7 8 9 13 12 12 12 12 16 18 16 18 18 18 20 20
7 5 4 4 7 4 3 3 5 4 4 4 2 4 4 3 1 3 2 5 16 14 10 8 4 7 10 10 4 6 4 3 3 5 5 6 6 7 8 8 9 12 13 11 13 15 18 19 16 14 14 15 16 19
4 4 3 5 5 4 4 3 4 3 4 4 3 4 3 2 1 1 2 4 6 8 8 8 6 7 7 2 5 3 3 2 1 2 4 3 2 4 8 8 9 11 12 9 15 17 19 18 18 17 18 17 17 16
3 5 6 3 3 4 4 3 4 5 3 3 5 4 2 1 1 3 2 2 3 2 3 5 5 5 3 1 1 4 6 5 4 6 4 4 5 4 5 6 7 9 9 7 12 16 18 19 21 22 23 23 22 24
3 5 7 8 6 5 6 9 8 4 3 4 3 2 0 2 1 3 4 3 3 2 2 2 5 6 6 5 3 5 6 7 3 3 1 3 4 6 5 4 6 6 10 12 15 17 22 24 25 23 22 21 20 19
6 4 4 5 7 7 3 4 2 3 2 2 3 2 2 1 2 3 6 6 4 2 3 6 4 5 6 7 7 4 4 7 6 5 5 5 11 7 5 9 7 10 17 18 19 19 19 18 16 15 15 15 14 13
5 6 4 5 6 5 7 6 4 3 3 6 2 2 3 4 13 16 9 5 4 3 1 2 3 5 5 7 8 11 7 7 8 7 8 9 10 8 10 7 8 17 18 20 20 17 16 15 16 15 14 13 10 6
6 11 5 5 4 5 6 9 5 6 14 13 7 12 17 17 16 12 6 6 4 3 3 3 3 2 3 6 10 11 11 11 10 9 8 8 10 10 10 9 14 18 21 20 19 18 17 15 13 10 7 4 4 5
4 7 6 6 5 9 15 15 16 17 17 19 16 16 15 11 14 5 2 3 4 3 7 5 5 5 3 7 7 7 10 13 13 11 10 8 9 8 10 12 15 18 20 21 21 18 14 11 7 3 2 4 7 5
9 10 5 3 5 7 9 10 10 10 13 15 14 10 10 8 5 4 4 4 6 5 6 5 6 7 5 6 6 8 9 11 11 10 12 10 6 6 11 15 15 17 19 21 17 13 10 7 3 1 4 4 3 4
9 8 10 7 4 3 6 6 5 4 6 6 9 12 13 7 5 4 6 8 7 6 7 2 3 8 8 8 6 10 10 10 9 9 13 16 12 10 15 17 16 16 18 16 12 9 6 4 4 6 7 6 2 1
Wind_Direction
315 317 318 318 318 319 318 318 318 321 315 323 325 328 332 337 337 342 343 332 320 271 290 269 250 233 246 226 198 305 336 306 314 213 187 257 246 276 316 300 264 196 165 192 156 203 259 317 34 64 312 337 340 332
307 309 311 311 312 308 308 309 309 304 314 313 315 317 322 328 331 332 335 328 321 289 279 292 285 270 260 252 258 239 242 286 266 123 266 304 304 283 198 296 316 284 201 212 190 215 167 102 4 327 324 333 328 319
304 303 305 304 306 307 307 306 304 302 301 301 304 306 314 318 325 324 324 329 328 298 307 296 312 291 268 233 238 231 240 222 225 235 247 247 232 157 210 227 235 263 203 221 323 199 183 306 316 321 326 325 324 322
301 302 304 305 305 306 306 304 302 299 289 294 297 303 306 310 317 320 320 321 308 300 286 286 303 303 279 250 251 242 252 250 252 247 230 231 225 222 230 245 222 224 244 262 264 297 301 291 297 307 310 315 317 320
297 300 302 305 306 307 306 303 299 296 279 288 293 302 302 308 310 317 316 305 289 282 285 294 315 16 206 246 244 249 247 247 246 251 223 226 228 239 256 277 249 224 234 235 255 248 252 270 293 302 301 301 312 312
298 300 303 305 306 306 305 301 296 292 268 277 284 298 301 306 307 324 310 281 328 327 312 311 310 302 252 266 279 271 261 248 223 201 226 228 234 193 230 242 240 241 239 241 246 256 260 271 282 286 285 296 296 308
299 302 304 305 305 306 306 303 296 291 275 279 281 286 296 299 299 303 281 275 289 346 298 299 288 283 303 293 280 278 259 222 219 215 224 241 244 198 245 253 244 245 252 253 250 254 258 262 264 275 283 276 284 297
300 301 302 304 305 305 303 303 297 289 279 275 277 276 289 294 294 308 313 277 243 277 262 283 279 300 296 289 289 270 247 229 231 236 240 246 247 206 252 252 254 248 242 244 247 248 252 262 268 275 274 266 275 256
299 301 302 303 306 307 305 298 298 293 292 288 283 286 289 288 297 325 291 289 285 231 271 239 260 275 305 278 275 288 255 257 273 276 265 308 326 252 262 284 275 266 256 252 249 232 240 261 272 269 282 259 229 180
298 299 300 302 305 306 301 292 300 306 287 278 280 258 243 215 247 276 303 239 177 218 230 253 240 266 293 308 292 297 266 279 289 250 284 257 262 270 284 285 274 275 264 255 240 244 245 244 251 260 233 209 206 197
294 295 298 299 302 305 293 274 300 287 278 248 226 231 215 200 272 243 254 217 195 243 227 244 236 251 281 225 265 266 305 286 281 246 257 263 282 329 335 353 340 323 287 238 235 242 225 236 245 238 212 202 190 190
296 295 297 301 302 298 269 250 280 276 233 223 242 272 248 214 196 243 240 193 207 248 229 224 256 240 277 251 267 261 259 282 281 332 279 336 306 333 341 350 347 2 13 315 204 224 219 224 228 210 171 163 158 160
295 296 300 301 300 288 220 262 280 263 231 237 231 215 191 170 231 214 217 221 234 221 243 259 275 264 268 253 268 269 292 256 305 324 21 280 329 339 347 357 0 18 29 49 82 111 120 154 168 146 153 171 166 160
297 301 302 300 283 232 243 258 258 195 190 210 187 263 211 208 231 205 220 219 285 280 299 306 268 235 259 266 257 278 272 286 339 15 340 324 332 343 358 5 21 37 40 42 69 101 94 107 121 136 134 142 139 140
301 302 297 286 243 227 234 232 207 187 219 240 211 233 222 232 247 252 260 274 302 314 309 294 277 259 286 281 253 299 326 336 46 320 310 330 343 359 11 17 27 46 51 69 100 112 111 102 127 119 87 102 130 141
298 301 311 258 227 220 224 202 180 183 237 242 234 258 247 272 270 261 257 299 323 329 318 275 301 279 251 286 323 353 329 357 314 279 321 332 345 11 24 33 36 48 60 63 88 114 115 107 107 103 105 111 125 138
264 274 290 246 239 219 213 190 173 201 234 235 251 251 257 275 275 284 298 308 320 323 307 337 337 283 295 5 312 295 251 267 310 320 333 348 358 15 31 42 51 62 62 63 74 82 90 93 96 97 96 100 105 110
251 246 258 260 227 212 208 188 201 226 244 247 242 264 250 254 268 276 285 293 301 293 284 240 305 316 291 252 279 259 288 312 329 339 356 7 26 35 41 55 56 65 70 75 76 80 84 94 96 99 102 108 111 114
248 250 271 231 198 182 190 201 211 258 243 260 267 273 274 276 279 278 273 272 278 282 262 234 254 226 253 251 272 304 319 323 324 341 25 36 33 46 56 52 63 65 63 61 65 73 78 83 89 93 95 99 105 113
218 235 237 176 178 195 228 220 217 254 262 275 274 273 267 267 283 287 266 255 256 226 198 203 220 241 239 291 332 320 324 319 306 353 54 60 44 85 93 72 71 73 67 62 65 66 70 86 93 102 118 121 120 117
198 209 195 196 208 240 263 244 237 250 285 269 282 285 270 265 264 264 260 216 192 205 225 245 260 276 294 296 327 331 334 324 347 292 310 43 72 69 86 83 82 83 67 46 33 62 80 80 79 91 113 118 123 123
212 203 189 187 204 223 259 242 249 292 271 265 284 268 256 259 238 216 181 188 221 239 243 263 277 286 309 204 67 360 345 342 343 0 58 78 107 97 85 98 95 81 58 49 61 71 83 88 90 102 110 118 125 123
202 182 177 197 203 229 263 237 245 245 251 266 282 268 245 249 242 168 198 214 245 264 276 281 277 282 246 255 249 315 295 320 335 135 114 113 113 103 91 90 61 44 39 71 76 79 99 108 104 103 99 120 119 118
180 185 210 216 207 255 255 244 230 251 259 261 250 273 266 255 263 203 226 233 247 258 271 300 289 214 227 260 308 280 317 322 86 129 137 149 139 111 111 98 84 63 50 90 88 88 100 113 115 110 106 114 124 124
199 215 210 236 221 218 220 245 224 222 246 226 249 274 265 294 16 286 241 269 267 261 253 263 267 224 231 250 305 231 231 179 101 139 132 109 90 135 133 113 87 69 53 85 96 100 107 109 109 112 113 119 128 128
223 213 206 220 217 228 221 253 210 215 229 245 237 260 273 58 316 256 242 304 270 245 232 228 217 175 152 122 167 168 177 156 127 130 144 135 92 87 119 119 114 94 85 97 118 115 108 108 107 108 109 112 117 122
238 229 222 226 248 270 271 263 261 253 256 224 251 287 298 247 290 280 328 303 309 295 268 234 198 187 198 183 168 177 160 150 116 158 150 170 165 141 91 84 115 106 121 133 128 120 119 117 116 117 120 124 123 119
237 260 227 209 218 236 256 289 268 249 258 330 335 298 347 145 261 330 314 312 312 319 282 227 202 188 180 183 183 188 182 173 160 138 132 154 150 139 134 134 118 129 137 142 136 128 125 126 126 124 124 125 127 125
235 229 232 252 229 241 221 221 247 257 26 8 353 284 298 311 314 324 306 289 283 281 276 158 199 214 221 215 206 189 173 183 187 164 159 155 154 144 138 118 117 139 140 143 137 131 129 125 124 122 120 118 119 119
240 206 217 232 209 221 234 214 239 298 325 324 316 300 299 307 325 328 283 245 267 299 234 190 196 197 200 208 188 195 206 194 195 210 160 148 133 122 125 118 137 143 147 149 148 145 141 137 134 128 120 94 46 26
231 199 219 240 255 248 250 260 278 288 291 290 294 295 299 318 331 332 274 237 211 208 207 251 253 227 228 203 208 204 183 183 183 177 165 133 123 117 124 130 140 147 150 151 150 151 151 148 140 121 18 359 11 35
208 210 212 227 257 265 265 255 257 250 262 270 278 266 274 293 299 295 191 169 171 212 244 231 224 215 224 212 194 179 173 190 201 199 188 174 145 133 147 145 138 150 156 159 156 155 156 159 162 3 347 356 355 349
208 220 227 275 267 258 212 213 215 237 231 241 242 241 248 247 240 257 210 216 230 227 181 115 174 193 204 194 189 193 178 164 168 170 168 153 151 143 151 156 158 156 166 169 169 172 180 207 259 289 323 333 309 24